Starlink 3360

operational
NORAD ID: 51149 Int'l Des: 2022-005 Owner: SPXS Country: US Constellation: starlink
LEOCIRCULAR

About Starlink 3360

Description loading...

Live Position

Loading 3D Globe...

Upcoming Passes

Altitude History

Altitude vs Time

uPlot chart will show altitude changes over time

Two-Line Element Set

1 51149U 22005AX 26062.03365322 -.00000107 00000-0 11382-4 0 9997
2 51149 53.2184 338.8154 0001361 106.2354 253.8788 15.08840590227595
Epoch: Mar 3, 2026 • Age: 25 hours

Current Status

Altitude 546.8 km
Velocity 7.59 km/s
Sub-Earth Point -22.52°S, 146.7°E
Launch Date Jan 19, 2022
Age 4.1 years
Type internet

Technical Details

Classification Payload
Mass 297.00 kg
Dry Mass 275.00 kg
Total Mass 297.00 kg
Length 0.20 m
Diameter 2.80 m
Span 9.00 m
Shape Box + pan
Manufacturer SPXS
Bus Type Starlink
Phase Status In Orbit
Owner/State SPXS/US

Large Constellations

Loading constellations...